N2KH KBOS-KPHL

Flight info

Callsign N2KH
Flight time N/A
Altitude 41000
Route SSOXS7 SSOXS Q167 RIFLE Q439 BRIGS JIIMS4
Aircraft C750/M-VGDW/C

Departure

Time 2026-04-29 16:07
Airport Boston Logan International Airport (KBOS)

Arrival

Time N/A
Airport Philadelphia International Airport (KPHL)
Time Latitude Longitude Altitude Speed Heading
2026-04-29 15:48 42.37451 -71.02211 22 ft 0 kts 316°
2026-04-29 15:48 42.37451 -71.02210 22 ft 0 kts 316°
2026-04-29 15:53 42.37450 -71.02210 22 ft 0 kts 316°
2026-04-29 15:55 42.37450 -71.02209 22 ft 0 kts 316°
2026-04-29 15:58 42.37439 -71.02195 24 ft 2 kts 301°
2026-04-29 15:59 42.37437 -71.02181 23 ft 2 kts 244°
2026-04-29 15:59 42.37436 -71.02179 23 ft 0 kts 224°
2026-04-29 15:59 42.37428 -71.02196 24 ft 3 kts 262°
2026-04-29 15:59 42.37436 -71.02207 23 ft 1 kts 336°
2026-04-29 16:00 42.37455 -71.02176 22 ft 8 kts 59°
2026-04-29 16:00 42.37490 -71.02086 22 ft 14 kts 108°
2026-04-29 16:00 42.37416 -71.01986 25 ft 17 kts 137°
2026-04-29 16:00 42.37325 -71.01866 22 ft 20 kts 134°
2026-04-29 16:01 42.37222 -71.01727 24 ft 22 kts 137°
2026-04-29 16:01 42.37105 -71.01573 23 ft 25 kts 134°
2026-04-29 16:01 42.36979 -71.01398 22 ft 27 kts 134°
2026-04-29 16:01 42.36841 -71.01209 22 ft 29 kts 136°
2026-04-29 16:02 42.36682 -71.01168 22 ft 25 kts 200°
2026-04-29 16:02 42.36550 -71.01230 22 ft 19 kts 201°
2026-04-29 16:02 42.36404 -71.01301 22 ft 16 kts 200°
2026-04-29 16:02 42.36323 -71.01284 22 ft 9 kts 127°
2026-04-29 16:03 42.36262 -71.01148 22 ft 20 kts 119°
2026-04-29 16:03 42.36222 -71.01062 22 ft 7 kts 149°
2026-04-29 16:03 42.36150 -71.01072 22 ft 17 kts 198°
2026-04-29 16:03 42.36064 -71.01114 22 ft 7 kts 201°
2026-04-29 16:04 42.36010 -71.01140 22 ft 9 kts 199°
2026-04-29 16:04 42.35916 -71.01184 22 ft 21 kts 199°
2026-04-29 16:04 42.35788 -71.01246 22 ft 14 kts 199°
2026-04-29 16:04 42.35701 -71.01286 22 ft 10 kts 199°
2026-04-29 16:05 42.35669 -71.01301 22 ft 0 kts 198°
2026-04-29 16:05 42.35659 -71.01304 22 ft 7 kts 192°
2026-04-29 16:05 42.35588 -71.01255 22 ft 13 kts 108°
2026-04-29 16:05 42.35588 -71.01235 22 ft 0 kts 83°
2026-04-29 16:06 42.35593 -71.01200 22 ft 28 kts 78°
2026-04-29 16:06 42.35729 -71.00432 22 ft 128 kts 76°
2026-04-29 16:07 42.35975 -70.99048 73 ft 165 kts 77°
2026-04-29 16:07 42.36247 -70.97545 482 ft 167 kts 76°
2026-04-29 16:07 42.36514 -70.95946 1026 ft 186 kts 78°
2026-04-29 16:07 42.36788 -70.94150 1599 ft 204 kts 77°
2026-04-29 16:08 42.37120 -70.92208 2163 ft 219 kts 76°
2026-04-29 16:08 42.37489 -70.90138 2734 ft 233 kts 76°
2026-04-29 16:08 42.37877 -70.87945 3288 ft 246 kts 76°
2026-04-29 16:08 42.38266 -70.85722 3803 ft 228 kts 76°
2026-04-29 16:09 42.38645 -70.83555 4313 ft 244 kts 76°
2026-04-29 16:09 42.38879 -70.81315 4810 ft 240 kts 89°
2026-04-29 16:09 42.38604 -70.79038 5290 ft 254 kts 105°
2026-04-29 16:09 42.38059 -70.76737 5809 ft 260 kts 107°
2026-04-29 16:10 42.37442 -70.74373 6319 ft 272 kts 114°
2026-04-29 16:10 42.36419 -70.72234 6787 ft 277 kts 130°
2026-04-29 16:10 42.34967 -70.70514 7251 ft 280 kts 146°
2026-04-29 16:10 42.33212 -70.69388 7724 ft 281 kts 162°
2026-04-29 16:11 42.31299 -70.68866 8222 ft 281 kts 172°
2026-04-29 16:11 42.29376 -70.68427 8741 ft 282 kts 168°
2026-04-29 16:11 42.27502 -70.67657 9258 ft 282 kts 161°
2026-04-29 16:11 42.25661 -70.66686 9790 ft 284 kts 160°
2026-04-29 16:12 42.23799 -70.65789 10289 ft 284 kts 163°
2026-04-29 16:12 42.21894 -70.64956 10765 ft 295 kts 163°
2026-04-29 16:12 42.19917 -70.64074 11262 ft 312 kts 162°
2026-04-29 16:12 42.17810 -70.63097 11757 ft 328 kts 162°
2026-04-29 16:13 42.15592 -70.62153 12248 ft 341 kts 167°
2026-04-29 16:13 42.13196 -70.61776 12743 ft 353 kts 181°
2026-04-29 16:13 42.10732 -70.62122 13251 ft 360 kts 193°
2026-04-29 16:13 42.08332 -70.63167 13769 ft 366 kts 204°
2026-04-29 16:14 42.06004 -70.64611 14262 ft 369 kts 207°
2026-04-29 16:14 42.03639 -70.66007 14745 ft 374 kts 204°
2026-04-29 16:14 42.01154 -70.67088 15228 ft 377 kts 198°
2026-04-29 16:14 41.98617 -70.68022 15695 ft 379 kts 198°
2026-04-29 16:15 41.96130 -70.69083 16177 ft 382 kts 202°
2026-04-29 16:15 41.93621 -70.70278 16683 ft 384 kts 201°
2026-04-29 16:15 41.91079 -70.71425 17196 ft 387 kts 200°
2026-04-29 16:15 41.88505 -70.72507 17717 ft 389 kts 200°
2026-04-29 16:16 41.85915 -70.73617 18252 ft 391 kts 201°
2026-04-29 16:16 41.83356 -70.74871 18711 ft 392 kts 207°
2026-04-29 16:16 41.80966 -70.76590 19177 ft 390 kts 213°
2026-04-29 16:16 41.78621 -70.78443 19660 ft 392 kts 214°
2026-04-29 16:17 41.76240 -70.80261 20136 ft 395 kts 213°
2026-04-29 16:17 41.73857 -70.82005 20621 ft 397 kts 212°
2026-04-29 16:17 41.71438 -70.83799 21121 ft 398 kts 213°
2026-04-29 16:17 41.69022 -70.85633 21637 ft 400 kts 214°
2026-04-29 16:18 41.66591 -70.87468 22153 ft 402 kts 214°
2026-04-29 16:18 41.64138 -70.89295 22681 ft 406 kts 213°
2026-04-29 16:18 41.61661 -70.91138 23220 ft 409 kts 213°
2026-04-29 16:18 41.59167 -70.93005 23739 ft 413 kts 213°
2026-04-29 16:19 41.56701 -70.94958 24185 ft 411 kts 218°
2026-04-29 16:19 41.54520 -70.97384 24631 ft 406 kts 229°
2026-04-29 16:19 41.52700 -71.00232 25094 ft 402 kts 238°
2026-04-29 16:19 41.51176 -71.03289 25577 ft 401 kts 240°
2026-04-29 16:20 41.49631 -71.06392 26076 ft 402 kts 240°
2026-04-29 16:20 41.48067 -71.09483 26596 ft 402 kts 240°
2026-04-29 16:20 41.46507 -71.12583 27106 ft 403 kts 240°
2026-04-29 16:20 41.44953 -71.15695 27611 ft 404 kts 240°
2026-04-29 16:21 41.43390 -71.18816 28128 ft 405 kts 240°
2026-04-29 16:21 41.41815 -71.21939 28663 ft 406 kts 240°
2026-04-29 16:21 41.40237 -71.25068 29209 ft 407 kts 240°
2026-04-29 16:21 41.38658 -71.28206 29753 ft 408 kts 240°
2026-04-29 16:22 41.37072 -71.31351 30301 ft 410 kts 241°
2026-04-29 16:22 41.35479 -71.34506 30784 ft 411 kts 241°
2026-04-29 16:22 41.33903 -71.37626 31278 ft 413 kts 241°
2026-04-29 16:22 41.32300 -71.40801 31768 ft 414 kts 242°
2026-04-29 16:23 41.30694 -71.43979 32276 ft 415 kts 242°
2026-04-29 16:23 41.29080 -71.47165 32795 ft 416 kts 242°
2026-04-29 16:23 41.27463 -71.50355 33323 ft 416 kts 242°
2026-04-29 16:23 41.25843 -71.53549 33864 ft 417 kts 242°
2026-04-29 16:24 41.24217 -71.56749 34357 ft 418 kts 242°
2026-04-29 16:24 41.22592 -71.59947 34826 ft 418 kts 242°
2026-04-29 16:24 41.20963 -71.63149 35301 ft 419 kts 242°
2026-04-29 16:24 41.19329 -71.66356 35780 ft 419 kts 242°
2026-04-29 16:25 41.17715 -71.69519 36273 ft 420 kts 241°
2026-04-29 16:25 41.16074 -71.72733 36760 ft 420 kts 241°
2026-04-29 16:25 41.14433 -71.75945 37249 ft 421 kts 241°
2026-04-29 16:25 41.12794 -71.79159 37779 ft 421 kts 241°
2026-04-29 16:26 41.11159 -71.82388 38317 ft 421 kts 241°
2026-04-29 16:26 41.09526 -71.85606 38837 ft 421 kts 240°
2026-04-29 16:26 41.07882 -71.88826 39278 ft 421 kts 240°
2026-04-29 16:26 41.06241 -71.92040 39736 ft 421 kts 240°
2026-04-29 16:27 41.04598 -71.95262 40043 ft 425 kts 240°
2026-04-29 16:27 41.01233 -72.01856 40086 ft 446 kts 240°
2026-04-29 16:28 40.97669 -72.08801 40072 ft 466 kts 240°
2026-04-29 16:28 40.93961 -72.16027 40075 ft 483 kts 240°
2026-04-29 16:29 40.90124 -72.23473 40088 ft 484 kts 239°
2026-04-29 16:29 40.86350 -72.30782 40079 ft 484 kts 239°
2026-04-29 16:30 40.82561 -72.38112 40053 ft 485 kts 239°
2026-04-29 16:30 40.80751 -72.41571 39976 ft 449 kts 240°
2026-04-29 16:30 40.78996 -72.44971 39605 ft 448 kts 240°
2026-04-29 16:30 40.77249 -72.48366 39220 ft 446 kts 240°
2026-04-29 16:31 40.75496 -72.51731 38876 ft 444 kts 240°
2026-04-29 16:31 40.73746 -72.55074 38491 ft 442 kts 241°
2026-04-29 16:31 40.72018 -72.58391 38066 ft 436 kts 241°
2026-04-29 16:31 40.70320 -72.61667 37662 ft 428 kts 242°
2026-04-29 16:32 40.68619 -72.64858 37238 ft 426 kts 238°
2026-04-29 16:32 40.66613 -72.67738 36808 ft 428 kts 231°
2026-04-29 16:32 40.64368 -72.70233 36423 ft 429 kts 225°
2026-04-29 16:32 40.61856 -72.72390 36041 ft 431 kts 220°
2026-04-29 16:33 40.56773 -72.76445 35312 ft 424 kts 220°
2026-04-29 16:33 40.54257 -72.78430 34952 ft 419 kts 220°
2026-04-29 16:33 40.51899 -72.80581 34572 ft 406 kts 228°
2026-04-29 16:34 40.49818 -72.83013 34217 ft 397 kts 232°
2026-04-29 16:34 40.47800 -72.85467 33814 ft 394 kts 231°
2026-04-29 16:34 40.45775 -72.87898 33410 ft 394 kts 231°
2026-04-29 16:34 40.43762 -72.90314 33011 ft 391 kts 231°
2026-04-29 16:35 40.41794 -72.92691 32620 ft 388 kts 231°
2026-04-29 16:35 40.39814 -72.95081 32234 ft 386 kts 230°
2026-04-29 16:35 40.37839 -72.97458 31852 ft 385 kts 229°
2026-04-29 16:35 40.35870 -72.99820 31473 ft 382 kts 229°
2026-04-29 16:36 40.33914 -73.02169 31101 ft 380 kts 228°
2026-04-29 16:36 40.31975 -73.04498 30732 ft 377 kts 228°
2026-04-29 16:36 40.30044 -73.06815 30346 ft 376 kts 227°
2026-04-29 16:36 40.28139 -73.09100 29973 ft 376 kts 226°
2026-04-29 16:37 40.26216 -73.11400 29560 ft 373 kts 226°
2026-04-29 16:37 40.24304 -73.13687 29143 ft 371 kts 226°
2026-04-29 16:37 40.22401 -73.15965 28737 ft 369 kts 226°
2026-04-29 16:37 40.21149 -73.17463 28471 ft 368 kts 226°
2026-04-29 16:38 40.18628 -73.20475 27943 ft 366 kts 226°
2026-04-29 16:38 40.16753 -73.22712 27554 ft 364 kts 226°
2026-04-29 16:38 40.14888 -73.24937 27170 ft 362 kts 226°
2026-04-29 16:38 40.13030 -73.27151 26792 ft 361 kts 226°
2026-04-29 16:39 40.11205 -73.29324 26408 ft 359 kts 226°
2026-04-29 16:39 40.09366 -73.31510 26046 ft 354 kts 227°
2026-04-29 16:39 40.07553 -73.33662 25680 ft 351 kts 227°
2026-04-29 16:39 40.05753 -73.35801 25323 ft 349 kts 227°
2026-04-29 16:40 40.03965 -73.37924 24968 ft 346 kts 227°
2026-04-29 16:40 40.02186 -73.40033 24620 ft 344 kts 227°
2026-04-29 16:40 40.00419 -73.42126 24274 ft 342 kts 227°
2026-04-29 16:40 39.98663 -73.44205 23933 ft 340 kts 227°
2026-04-29 16:41 39.96918 -73.46270 23586 ft 338 kts 227°
2026-04-29 16:41 39.95204 -73.48297 23190 ft 337 kts 226°
2026-04-29 16:41 39.93467 -73.50349 22771 ft 336 kts 227°
2026-04-29 16:41 39.91738 -73.52388 22376 ft 335 kts 227°
2026-04-29 16:42 39.90041 -73.54458 21970 ft 332 kts 231°
2026-04-29 16:42 39.88579 -73.56769 21589 ft 330 kts 235°
2026-04-29 16:42 39.87136 -73.59097 21206 ft 331 kts 234°
2026-04-29 16:42 39.85675 -73.61407 20833 ft 330 kts 234°
2026-04-29 16:43 39.84212 -73.63713 20466 ft 330 kts 234°
2026-04-29 16:43 39.82758 -73.66023 20109 ft 331 kts 233°
2026-04-29 16:43 39.81326 -73.68300 20072 ft 330 kts 233°
2026-04-29 16:43 39.79871 -73.70605 20075 ft 331 kts 233°
2026-04-29 16:44 39.78409 -73.72917 20078 ft 331 kts 233°
2026-04-29 16:44 39.76950 -73.75225 20076 ft 331 kts 233°
2026-04-29 16:44 39.75489 -73.77535 20067 ft 330 kts 233°
2026-04-29 16:44 39.74032 -73.79835 20064 ft 330 kts 233°
2026-04-29 16:45 39.72574 -73.82137 20059 ft 330 kts 233°
2026-04-29 16:45 39.71116 -73.84437 20062 ft 330 kts 233°
2026-04-29 16:45 39.69675 -73.86706 20061 ft 330 kts 233°
2026-04-29 16:45 39.68216 -73.89004 20064 ft 330 kts 233°
2026-04-29 16:46 39.66756 -73.91303 20063 ft 330 kts 233°
2026-04-29 16:46 39.65294 -73.93601 20060 ft 330 kts 233°
2026-04-29 16:46 39.63833 -73.95896 20061 ft 330 kts 233°
2026-04-29 16:46 39.62372 -73.98191 20057 ft 330 kts 233°
2026-04-29 16:47 39.60909 -74.00487 20063 ft 330 kts 233°
2026-04-29 16:47 39.59441 -74.02790 20070 ft 331 kts 233°
2026-04-29 16:47 39.57970 -74.05092 20068 ft 331 kts 233°
2026-04-29 16:47 39.56500 -74.07395 20068 ft 331 kts 233°
2026-04-29 16:48 39.55049 -74.09666 20076 ft 332 kts 233°
2026-04-29 16:48 39.53624 -74.12024 19765 ft 331 kts 239°
2026-04-29 16:48 39.52716 -74.14736 19350 ft 328 kts 254°
2026-04-29 16:48 39.52424 -74.17648 18969 ft 327 kts 269°
2026-04-29 16:49 39.52486 -74.20596 18634 ft 327 kts 270°
2026-04-29 16:49 39.52551 -74.23542 18291 ft 327 kts 270°
2026-04-29 16:49 39.52604 -74.26485 17899 ft 326 kts 270°
2026-04-29 16:49 39.52657 -74.29420 17508 ft 325 kts 270°
2026-04-29 16:50 39.52712 -74.32302 17125 ft 324 kts 270°
2026-04-29 16:50 39.52768 -74.35215 16739 ft 323 kts 270°
2026-04-29 16:50 39.52821 -74.38125 16362 ft 323 kts 270°
2026-04-29 16:50 39.52873 -74.41031 15986 ft 322 kts 270°
2026-04-29 16:51 39.52925 -74.43924 15613 ft 321 kts 270°
2026-04-29 16:51 39.52976 -74.46806 15245 ft 319 kts 270°
2026-04-29 16:51 39.53026 -74.49678 14882 ft 318 kts 270°
2026-04-29 16:51 39.53075 -74.52537 14524 ft 316 kts 271°
2026-04-29 16:52 39.53123 -74.55386 14164 ft 316 kts 271°
2026-04-29 16:52 39.53169 -74.58173 14068 ft 315 kts 271°
2026-04-29 16:52 39.53216 -74.61000 14077 ft 314 kts 271°
2026-04-29 16:52 39.53262 -74.63835 14076 ft 314 kts 271°
2026-04-29 16:53 39.53307 -74.66680 14073 ft 321 kts 271°
2026-04-29 16:53 39.53354 -74.69691 14077 ft 346 kts 271°
2026-04-29 16:53 39.53402 -74.72829 14077 ft 351 kts 271°
2026-04-29 16:53 39.53451 -74.76002 14074 ft 356 kts 271°
2026-04-29 16:54 39.53501 -74.79194 14071 ft 355 kts 271°
2026-04-29 16:54 39.53553 -74.82349 14065 ft 355 kts 271°
2026-04-29 16:54 39.53603 -74.85552 14066 ft 354 kts 271°
2026-04-29 16:54 39.53651 -74.88754 14062 ft 354 kts 271°
2026-04-29 16:55 39.53698 -74.91969 13701 ft 356 kts 271°
2026-04-29 16:55 39.53778 -74.95146 13263 ft 354 kts 274°
2026-04-29 16:55 39.54446 -74.98193 12754 ft 353 kts 294°